Flag for Germany Weather for the Past 2 Weeks in Weilheim in Oberbayern, Bavaria, Germany

Now
41 °F

Quite cool.


Feels Like: 34 °F
Forecast: 44 / 59 °F
Wind: 12 mph from West

Location: Altenstadt Airport

Current Time: May 1, 2016 at 8:29:42 AM

Latest Report: May 1, 2016 at 7:20 AM


Visibility: N/A

Pressure: 29.89 "Hg (27.90 "Hg at 560m altitude)

Humidity: 93%

Dew Point: 39 °F

Location of Weilheim in OberbayernLocation

Historic Weather in Weilheim in Oberbayern — Graph

°F

Weilheim in Oberbayern Temperature Yesterday

Maximum temperature yesterday: 63 °F (at 4:20 PM)
Minimum temperature yesterday: 32 °F (at 6:20 AM)
Average temperature yesterday: 48 °F

High & Low Weather Summary for the Past Weeks

 TemperatureHumidityPressure
High64 °F (Apr 21, 5:20 PM)100% (Apr 18, 12:20 AM)30.33 "Hg (Apr 18, 12:20 AM)
Low27 °F (Apr 28, 3:20 AM)31% (Apr 30, 5:20 PM)29.59 "Hg (Apr 26, 9:20 AM)
Average42 °F75%29.94 "Hg
* Reported Apr 16 6:20 AM — May 1 6:20 AM, Weilheim in Oberbayern, Weather by CustomWeather, © 2016

Note: Actual official high and low records may vary slightly from our data, if they occured in-between our weather recording intervals... More about our weather records

Advertising

Weilheim in Oberbayern Weather History for the Previous 24 Hours

Scroll right to see more
 ConditionsComfort  
Time TempWeatherWind HumidityBarometerVisibility
6:20 AM
Sun, May 1
43 °FQuite cool.12 mph87%29.86 "HgN/A
5:20 AM43 °FQuite cool.10 mph87%29.89 "HgN/A
4:20 AM43 °FQuite cool.9 mph87%29.89 "HgN/A
3:20 AM43 °FQuite cool.17 mph87%29.86 "HgN/A
2:20 AM45 °FQuite cool.12 mph87%29.86 "HgN/A
1:20 AM45 °FQuite cool.16 mph87%29.86 "HgN/A
12:20 AM45 °FQuite cool.21 mph87%29.86 "HgN/A
11:20 PM
Sat, Apr 30
48 °FCool.16 mph66%29.86 "HgN/A
10:20 PM52 °FCool.5 mph44%29.86 "HgN/A
9:20 PM52 °FCool.7 mph47%29.86 "HgN/A
8:20 PM54 °FCool.12 mph47%29.86 "HgN/A
7:20 PM55 °FRefreshingly cool.5 mph51%29.86 "HgN/A
6:20 PM59 °FRefreshingly cool.8 mph39%29.86 "HgN/A
5:20 PM61 °FRefreshingly cool.13 mph31%29.86 "HgN/A
4:20 PM63 °FMild.14 mph32%29.86 "HgN/A
3:20 PM61 °FRefreshingly cool.15 mph34%29.89 "HgN/A
2:20 PM59 °FRefreshingly cool.16 mph36%29.92 "HgN/A
1:20 PM59 °FRefreshingly cool.15 mph36%29.95 "HgN/A
12:20 PM59 °FRefreshingly cool.9 mph39%29.95 "HgN/A
11:20 AM57 °FRefreshingly cool.8 mph39%29.98 "HgN/A
10:20 AM55 °FRefreshingly cool.3 mph47%30.01 "HgN/A
9:20 AM50 °FCool.1 mph67%30.01 "HgN/A
8:20 AM41 °FQuite cool.5 mph70%30.01 "HgN/A
Weather by CustomWeather, © 2016

See weather overviewHow to use our weather pages